This demonstration page uses our WeatherBlox Daily Observations layout. Learn more.

Left ArrowRight Arrow

36.17497, -115.13722

Hourly Observations for December 29, 2019

Temp ( °F °C ) Dew Point ( °F °C ) Humidity (%) Winds ( mph kmh ) Pressure ( in mb ) Visibility ( mi km ) Precip ( " mm )
12:58 am 00:58 Clear 38 3.2 21 -6.2 51 51 Calm 30.20 1023 10 16 0.00 0.00
1:59 am 01:59 Clear 35 1.8 23 -4.9 61 61 Calm 30.21 1023 10 16 0.00 0.00
2:58 am 02:58 Clear 35 1.4 22 -5.5 60 60 S 3 6 30.22 1023 10 16 0.00 0.00
3:58 am 03:58 Clear 34 1 23 -4.8 66 66 N 3 6 30.23 1024 10 16 0.00 0.00
4:58 am 04:58 Clear 32 -0.1 24 -4.7 71 71 Calm 30.23 1024 10 16 0.00 0.00
6:58 am 06:58 Partly Cloudy 31 -0.5 24 -4.4 75 75 NNW 3 6 30.25 1024 10 16 0.00 0.00
7:58 am 07:58 Partly Cloudy 35 1.4 24 -4.5 65 65 Calm 30.27 1025 10 16 0.00 0.00
8:58 am 08:58 Sunny 35 1.7 27 -2.8 72 72 S 5 7 30.29 1026 10 16 0.00 0.00
9:58 am 09:58 Sunny 40 4.6 23 -4.9 51 51 Calm 30.28 1025 10 16 0.00 0.00
10:58 am 10:58 Partly Cloudy 43 6 23 -5 46 46 Calm 30.24 1024 10 16 0.00 0.00
11:58 am 11:58 Mostly Cloudy 44 6.9 20 -6.8 37 37 SW 3 6 30.21 1023 10 16 0.00 0.00
12:58 pm 12:58 Mostly Cloudy 44 6.9 20 -6.4 38 38 Calm 30.19 1023 10 16 0.00 0.00
1:58 pm 13:58 Mostly Cloudy 45 7.3 19 -7.2 35 35 Calm 30.18 1022 10 16 0.00 0.00
2:58 pm 14:58 Cloudy 46 7.5 19 -7.4 34 34 NNE 5 7 30.18 1022 10 16 0.00 0.00
3:58 pm 15:58 Cloudy 45 7.2 19 -7.3 35 35 NNE 5 7 30.17 1022 10 16 0.00 0.00
4:58 pm 16:58 Mostly Clear 44 6.5 22 -5.5 42 42 NE 5 7 30.16 1021 10 16 0.00 0.00
5:58 pm 17:58 Mostly Cloudy 42 5.8 24 -4.4 48 48 NNE 7 11 30.16 1021 10 16 0.00 0.00
6:58 pm 18:58 Cloudy 41 5.1 28 -2.5 58 58 NNE 7 11 30.17 1022 10 16 0.00 0.00
7:58 pm 19:58 Cloudy 39 4 29 -1.6 67 67 NNE 5 7 30.16 1021 10 16 0.00 0.00
8:58 pm 20:58 Mostly Clear 39 3.9 26 -3.4 59 59 NE 8 13 30.16 1021 10 16 0.00 0.00
9:58 pm 21:58 Mostly Cloudy 38 3.4 25 -3.9 59 59 NE 9 15 30.16 1021 10 16 0.00 0.00
10:58 pm 22:58 Cloudy 38 3.6 25 -3.9 58 58 NE 7 11 30.14 1021 10 16 0.00 0.00
11:58 pm 23:58 Mostly Cloudy 37 3 25 -4 60 60 NE 7 11 30.14 1021 10 16 0.00 0.00

Powered by AerisWeather